Location: Eisingen in Unterfranken
(49.7591°N, 9.8347°E)
Time: 09:07:52
(UTC+01:00)

Envisat - Pass Details

Date: 06 December 2022
Orbit: 763 x 765 km, 98.2° (Epoch: 04 February)

Event Time Altitude Azimuth Distance (km) Brightness Sun altitude
Rises 06:46:15 0° 360° (N) 3,247 6.0 -11.7°
Reaches altitude 10° 06:50:06 10° 330° (NNW) 2,315 5.0 -11.1°
Enters shadow 06:51:20 12° 316° (NW) 2,192 4.8 -10.9°
